Terminal Aerodrome Forecast
Issued by NWS Wilmington, OH

Current Version | Previous Version | Graphics & Text | Print | Product List | Glossary On
Versions: 1 2 3 4 5 6 7 8 9 10 11 12 13 14 15 16 17 18 19
000
FTUS41 KILN 091832 AAA
TAFILN
TAF AMD
KILN 091832Z 0919/1018 23012KT 2SM -SN OVC025
     FM092200 27012G18KT 2SM -SHSN OVC015
     FM100100 28014G24KT P6SM VCSH OVC015
     FM100400 29012G22KT P6SM BKN022
     FM101000 27010KT P6SM SCT025 BKN200
     FM101200 24010KT P6SM BKN200
     FM101500 24012G18KT P6SM BKN080=

USA.gov is the U.S. government's official web portal to all federal, state and local government web resources and services.